GW4126 Weather Reports


Display with metric or nautical units.
time (UTC)temp
F
wind
direction
speed
MPH
gust
MPH
rain 1hr
in
rain 24hr
in
rain mn
in
humidity
%
barometer
mb
20260506212530 53 260 8.0 12.0 0.00 0.00 0.00 62 1023.5
20260506212030 53 302 8.0 12.0 0.00 0.00 0.00 62 1023.5
20260506211542 53 278 9.0 12.0 0.00 0.00 0.00 61 1023.6
20260506211030 53 301 7.0 11.0 0.00 0.00 0.00 59 1023.5
20260506210530 54 286 7.0 11.0 0.00 0.00 0.00 61 1023.4
20260506210055 53 313 7.0 11.0 0.00 0.00 0.00 59 1023.3
20260506205530 53 261 7.0 12.0 0.00 0.00 0.00 60 1023.2
20260506205029 53 281 6.0 12.0 0.00 0.00 0.00 59 1023.2
20260506204538 53 279 6.0 10.0 0.00 0.00 0.00 59 1023.2
20260506204030 53 346 6.0 11.0 0.00 0.00 0.00 58 1023.0
20260506203529 53 270 6.0 11.0 0.00 0.00 0.00 63 1023.0
20260506203037 53 261 5.0 11.0 0.00 0.00 0.00 61 1023.1
20260506202529 53 235 6.0 11.0 0.00 0.00 0.00 64 1023.0
20260506202032 52 267 8.0 11.0 0.00 0.00 0.00 62 1022.9
20260506201548 52 263 6.0 11.0 0.00 0.00 0.00 64 1022.9
20260506201030 53 296 8.0 11.0 0.00 0.00 0.00 61 1022.8
20260506200530 52 245 3.0 11.0 0.00 0.00 0.00 62 1022.8
20260506200043 52 260 5.0 11.0 0.00 0.00 0.00 60 1022.9
20260506195529 52 301 8.0 12.0 0.00 0.00 0.00 63 1022.9
20260506195030 52 292 8.0 12.0 0.00 0.00 0.00 63 1022.9
20260506194544 53 298 8.0 12.0 0.00 0.00 0.00 62 1022.9
20260506194032 52 267 7.0 12.0 0.00 0.00 0.00 62 1022.8
20260506193529 52 293 9.0 12.0 0.00 0.00 0.00 64 1022.8
20260506193041 52 295 8.0 13.0 0.00 0.00 0.00 64 1022.7
20260506192532 52 298 6.0 13.0 0.00 0.00 0.00 65 1022.7
20260506192032 51 316 6.0 12.0 0.00 0.00 0.00 66 1022.7
20260506191548 51 290 7.0 12.0 0.00 0.00 0.00 65 1022.7
20260506191030 52 282 8.0 11.0 0.00 0.00 0.00 65 1022.7
20260506190529 52 311 7.0 11.0 0.00 0.00 0.00 65 1022.7
20260506190044 52 327 8.0 11.0 0.00 0.00 0.00 65 1022.5
20260506185531 51 333 6.0 12.0 0.00 0.00 0.00 64 1022.5
20260506185029 50 347 8.0 12.0 0.00 0.00 0.00 65 1022.5
20260506184556 51 355 9.0 12.0 0.00 0.00 0.00 66 1022.5
20260506184030 51 335 5.0 11.0 0.00 0.00 0.00 65 1022.5
20260506183530 50 334 5.0 11.0 0.00 0.00 0.00 65 1022.5
20260506183048 50 330 6.0 11.0 0.00 0.00 0.00 66 1022.4
20260506182530 50 344 6.0 11.0 0.00 0.00 0.00 66 1022.4
20260506182033 50 345 6.0 11.0 0.00 0.00 0.00 65 1022.4
20260506181546 50 310 8.0 12.0 0.00 0.00 0.00 66 1022.4
20260506181030 50 340 7.0 12.0 0.00 0.00 0.00 67 1022.4
20260506180531 49 317 8.0 12.0 0.00 0.00 0.00 68 1022.5
20260506180047 49 319 9.0 12.0 0.00 0.00 0.00 68 1022.5
20260506175530 49 320 8.0 13.0 0.00 0.00 0.00 67 1022.5
20260506175029 49 296 8.0 13.0 0.00 0.00 0.00 67 1022.4
20260506174540 49 326 6.0 10.0 0.00 0.00 0.00 67 1022.4
20260506174029 49 304 4.0 11.0 0.00 0.00 0.00 68 1022.5
20260506173530 49 317 7.0 12.0 0.00 0.00 0.00 67 1022.5
20260506173044 50 346 7.0 12.0 0.00 0.00 0.00 67 1022.4
20260506172529 50 329 7.0 13.0 0.00 0.00 0.00 69 1022.5
20260506172033 49 309 9.0 13.0 0.00 0.00 0.00 69 1022.6
20260506171555 50 319 8.0 13.0 0.00 0.00 0.00 68 1022.5
20260506171029 49 299 7.0 11.0 0.00 0.00 0.00 68 1022.5
20260506170532 48 321 6.0 12.0 0.00 0.00 0.00 70 1022.5
20260506170047 48 330 5.0 12.0 0.00 0.00 0.00 70 1022.4
20260506165534 48 321 9.0 12.0 0.00 0.00 0.00 71 1022.3
20260506165030 48 323 9.0 11.0 0.00 0.00 0.00 72 1022.5
20260506164544 48 319 7.0 13.0 0.00 0.00 0.00 72 1022.5
20260506164029 48 333 9.0 12.0 0.00 0.00 0.00 72 1022.4
20260506163529 48 316 5.0 10.0 0.00 0.00 0.00 74 1022.4
20260506163042 48 304 7.0 10.0 0.00 0.00 0.00 74 1022.4
20260506162530 47 290 5.0 11.0 0.00 0.00 0.00 74 1022.3
20260506162030 47 340 7.0 11.0 0.00 0.00 0.00 74 1022.2
20260506161543 47 331 5.0 12.0 0.00 0.00 0.00 74 1022.3
20260506161032 47 318 7.0 12.0 0.00 0.00 0.00 75 1022.2
20260506160533 47 318 7.0 11.0 0.00 0.00 0.00 75 1022.2
20260506160045 47 306 5.0 9.0 0.00 0.00 0.00 75 1022.2
20260506155529 47 324 5.0 10.0 0.00 0.00 0.00 76 1022.1
20260506155030 47 288 6.0 11.0 0.00 0.00 0.00 76 1022.0
20260506154546 47 304 6.0 12.0 0.00 0.00 0.00 75 1022.0
20260506154031 46 313 8.0 13.0 0.00 0.00 0.00 75 1021.9
20260506153529 46 321 9.0 13.0 0.00 0.00 0.00 75 1021.9
20260506153040 46 289 8.0 13.0 0.00 0.00 0.00 75 1021.9
20260506152531 46 307 8.0 13.0 0.00 0.00 0.00 75 1021.9
20260506152030 46 288 9.0 14.0 0.00 0.00 0.00 75 1021.8
20260506151542 46 276 10.0 14.0 0.00 0.00 0.00 75 1021.8
20260506151029 46 297 10.0 14.0 0.00 0.00 0.00 75 1021.8
20260506150530 46 291 8.0 15.0 0.00 0.00 0.00 75 1021.8
20260506150039 46 304 10.0 15.0 0.00 0.00 0.00 76 1021.8
20260506145531 46 310 7.0 12.0 0.00 0.00 0.00 76 1021.7
20260506145030 46 313 6.0 12.0 0.00 0.00 0.00 76 1021.7
20260506144558 46 307 7.0 11.0 0.00 0.00 0.00 76 1021.6
20260506144032 46 300 6.0 11.0 0.00 0.00 0.00 76 1021.5
20260506143531 46 303 9.0 13.0 0.00 0.00 0.00 76 1021.5
20260506143045 46 309 8.0 13.0 0.00 0.00 0.00 76 1021.4
20260506142530 46 319 8.0 13.0 0.00 0.00 0.00 76 1021.5
20260506142029 46 314 9.0 13.0 0.00 0.00 0.00 76 1021.4
20260506141538 46 308 9.0 13.0 0.00 0.00 0.00 75 1021.4
20260506141030 46 310 8.0 14.0 0.00 0.00 0.00 75 1021.3
20260506140530 46 315 9.0 14.0 0.00 0.00 0.00 75 1021.3
20260506140042 46 311 7.0 11.0 0.00 0.00 0.00 75 1021.3
20260506135533 46 299 6.0 12.0 0.00 0.00 0.00 75 1021.3
20260506135029 46 327 6.0 12.0 0.00 0.00 0.00 75 1021.1
20260506134546 46 309 8.0 12.0 0.00 0.00 0.00 75 1021.1
20260506134031 46 309 7.0 12.0 0.00 0.00 0.00 76 1021.0
20260506133529 46 333 7.0 11.0 0.00 0.00 0.00 76 1021.0
20260506133045 46 315 6.0 13.0 0.00 0.00 0.00 76 1020.9
20260506132534 46 318 5.0 13.0 0.00 0.00 0.00 76 1020.8
20260506132029 46 309 10.0 13.0 0.00 0.00 0.00 76 1020.8
20260506131546 46 309 8.0 13.0 0.00 0.00 0.00 76 1020.7
20260506131031 46 297 7.0 11.0 0.00 0.00 0.00 76 1020.8
20260506130529 46 331 8.0 11.0 0.00 0.00 0.00 76 1020.8
20260506130049 46 339 8.0 13.0 0.00 0.00 0.00 76 1020.8
20260506125529 46 325 9.0 13.0 0.00 0.00 0.00 76 1020.7
20260506125030 46 323 9.0 13.0 0.00 0.00 0.00 77 1020.8
20260506124543 46 323 9.0 13.0 0.00 0.00 0.00 77 1020.8
20260506124033 46 324 9.0 15.0 0.00 0.00 0.00 77 1020.7
20260506123530 47 303 10.0 15.0 0.00 0.00 0.00 77 1020.7
20260506123045 47 309 6.0 11.0 0.00 0.00 0.00 78 1020.8
20260506122530 47 310 6.0 9.0 0.00 0.00 0.00 78 1020.6
20260506122032 47 308 5.0 8.0 0.00 0.00 0.00 78 1020.6
20260506121541 47 321 4.0 8.0 0.00 0.00 0.00 78 1020.6
20260506121029 47 324 4.0 8.0 0.00 0.00 0.00 77 1020.6
20260506120532 47 322 4.0 8.0 0.00 0.00 0.00 77 1020.5
20260506120040 47 303 5.0 10.0 0.00 0.00 0.00 77 1020.4
20260506115530 47 312 4.0 10.0 0.00 0.00 0.00 77 1020.3
20260506115029 47 315 5.0 9.0 0.00 0.00 0.00 77 1020.3
20260506114551 47 300 6.0 9.0 0.00 0.00 0.00 77 1020.3
20260506114029 47 325 4.0 8.0 0.00 0.00 0.00 77 1020.3
20260506113530 47 300 6.0 10.0 0.00 0.00 0.00 77 1020.3
20260506113042 47 325 6.0 10.0 0.00 0.00 0.00 77 1020.2
20260506112531 47 309 6.0 10.0 0.00 0.00 0.00 78 1020.2
20260506112029 47 310 6.0 9.0 0.00 0.00 0.00 77 1020.1
20260506111539 47 303 4.0 11.0 0.00 0.00 0.00 78 1020.1
20260506111029 47 312 5.0 11.0 0.00 0.00 0.00 78 1020.0
20260506110529 47 317 4.0 10.0 0.00 0.00 0.00 78 1020.1
20260506110042 47 316 5.0 8.0 0.00 0.00 0.00 78 1020.1
20260506105531 47 332 3.0 8.0 0.00 0.00 0.00 79 1020.0
20260506105029 47 313 4.0 8.0 0.00 0.00 0.00 79 1020.0
20260506104544 47 323 5.0 7.0 0.00 0.00 0.00 79 1020.0
20260506104029 47 341 4.0 10.0 0.00 0.00 0.00 79 1020.0
20260506103529 47 337 6.0 11.0 0.00 0.00 0.00 78 1019.9
20260506103038 47 325 5.0 11.0 0.00 0.00 0.00 78 1020.0
20260506102529 47 327 8.0 11.0 0.00 0.00 0.00 78 1019.9
20260506102029 46 322 6.0 10.0 0.00 0.00 0.00 79 1020.0
20260506101545 46 317 7.0 10.0 0.00 0.00 0.00 79 1020.0
20260506101030 46 321 7.0 10.0 0.00 0.00 0.00 80 1020.0
20260506100532 46 325 6.0 11.0 0.00 0.00 0.00 81 1020.0
20260506100046 45 306 6.0 11.0 0.00 0.00 0.00 81 1020.1
20260506095530 45 335 5.0 7.0 0.00 0.00 0.00 82 1019.9
20260506095030 45 319 3.0 7.0 0.00 0.00 0.00 82 1020.0
20260506094542 45 322 2.0 5.0 0.00 0.00 0.00 82 1019.9
20260506094029 45 322 2.0 5.0 0.00 0.00 0.00 81 1019.8
20260506093529 45 351 2.0 3.0 0.00 0.00 0.00 81 1019.8
20260506093041 45 351 2.0 3.0 0.00 0.00 0.00 81 1019.7
20260506092533 45 351 2.0 3.0 0.00 0.00 0.00 80 1019.7
20260506092029 45 351 2.0 3.0 0.00 0.00 0.00 80 1019.6
20260506091541 46 351 2.0 5.0 0.00 0.00 0.00 80 1019.6
20260506091031 46 351 2.0 6.0 0.00 0.00 0.00 80 1019.6
20260506090530 46 351 4.0 10.0 0.00 0.00 0.00 80 1019.6
20260506090037 46 334 5.0 11.0 0.00 0.00 0.00 79 1019.5
20260506085530 46 325 5.0 11.0 0.00 0.00 0.00 80 1019.6
20260506085030 46 318 7.0 12.0 0.00 0.00 0.00 79 1019.6
20260506084543 46 355 5.0 12.0 0.00 0.00 0.00 80 1019.6
20260506084030 46 310 8.0 12.0 0.00 0.00 0.00 79 1019.6
20260506083529 46 321 5.0 9.0 0.00 0.00 0.00 79 1019.4
20260506083050 46 336 4.0 9.0 0.00 0.00 0.00 78 1019.5
20260506082529 46 345 5.0 9.0 0.00 0.00 0.00 78 1019.5
20260506082029 46 339 6.0 9.0 0.00 0.00 0.00 78 1019.4
20260506081543 46 333 3.0 9.0 0.00 0.00 0.00 77 1019.4
20260506081030 46 335 3.0 9.0 0.00 0.00 0.00 77 1019.3
20260506080530 46 320 4.0 9.0 0.00 0.00 0.00 77 1019.3
20260506073529 47 336 4.0 9.0 0.00 0.00 0.00 75 1019.1
20260506073049 47 333 4.0 9.0 0.00 0.00 0.00 75 1019.0
20260506072529 47 329 6.0 9.0 0.00 0.00 0.00 75 1019.0
20260506072031 47 342 5.0 9.0 0.00 0.00 0.00 75 1018.9
20260506071552 47 333 5.0 9.0 0.00 0.00 0.00 74 1018.9
20260506071029 47 330 6.0 10.0 0.00 0.00 0.00 74 1018.8
20260506070529 47 327 6.0 10.0 0.00 0.00 0.00 74 1018.8
20260506062029 47 317 10.0 14.0 0.00 0.00 0.00 75 1018.7
20260506061541 47 307 10.0 14.0 0.00 0.00 0.00 75 1018.6
20260506061030 47 320 8.0 14.0 0.00 0.00 0.00 75 1018.7
20260506060530 47 323 10.0 17.0 0.00 0.00 0.00 75 1018.7
20260506051030 48 306 10.0 21.0 0.00 0.00 0.00 73 1018.4
20260506050529 48 330 13.0 21.0 0.00 0.00 0.00 73 1018.3
20260506045029 49 308 13.0 18.0 0.00 0.00 0.00 74 1018.2
20260506044545 49 298 10.0 19.0 0.00 0.00 0.00 74 1018.1
20260506044030 49 320 14.0 19.0 0.00 0.00 0.00 74 1018.1
20260506043529 49 302 11.0 17.0 0.00 0.00 0.00 74 1018.0
20260506043044 49 300 10.0 17.0 0.00 0.00 0.00 74 1018.0
20260506042531 49 311 10.0 16.0 0.00 0.00 0.00 75 1017.8
20260506042031 49 297 11.0 16.0 0.00 0.00 0.00 75 1017.9
20260506041548 49 314 10.0 16.0 0.00 0.00 0.00 75 1017.7
20260506041030 50 294 10.0 16.0 0.00 0.00 0.00 74 1017.6
20260506040530 49 299 9.0 15.0 0.00 0.00 0.00 74 1017.7
20260506040044 49 277 10.0 15.0 0.00 0.00 0.00 74 1017.4
20260506035533 50 284 10.0 16.0 0.00 0.00 0.00 73 1017.4
20260506035030 50 306 10.0 16.0 0.00 0.00 0.00 73 1017.3
20260506034542 50 312 11.0 16.0 0.00 0.00 0.00 72 1017.1
20260506034029 50 268 10.0 16.0 0.00 0.00 0.00 72 1017.0
20260506033529 51 287 8.0 17.0 0.00 0.00 0.00 70 1017.0
20260506033042 51 294 9.0 17.0 0.00 0.00 0.00 71 1016.9
20260506032529 51 281 9.0 17.0 0.00 0.00 0.00 70 1017.0
20260506032031 52 277 10.0 17.0 0.00 0.00 0.00 70 1016.9
20260506031544 52 309 11.0 17.0 0.00 0.00 0.00 70 1016.8
20260506031029 53 288 8.0 17.0 0.00 0.00 0.00 69 1016.9
20260506030532 53 265 6.0 14.0 0.00 0.00 0.00 68 1016.7
20260506030058 53 310 9.0 14.0 0.00 0.00 0.00 68 1016.7
20260506025530 54 281 9.0 14.0 0.00 0.00 0.00 66 1016.7
20260506025033 54 300 10.0 14.0 0.00 0.00 0.00 65 1016.7
20260506024552 54 298 9.0 14.0 0.00 0.00 0.00 65 1016.6
20260506024030 54 309 8.0 14.0 0.00 0.00 0.00 64 1016.6
20260506023530 55 275 10.0 16.0 0.00 0.00 0.00 63 1016.5
20260506023041 55 281 12.0 16.0 0.00 0.00 0.00 62 1016.5
20260506022529 55 280 8.0 15.0 0.00 0.00 0.00 62 1016.4
20260506022029 56 304 8.0 17.0 0.00 0.00 0.00 61 1016.4
20260506021541 56 284 10.0 17.0 0.00 0.00 0.00 59 1016.5
20260506021030 56 294 11.0 16.0 0.00 0.00 0.00 58 1016.4
20260506020534 57 286 10.0 17.0 0.00 0.00 0.00 58 1016.3
20260506020038 57 284 12.0 17.0 0.00 0.00 0.00 57 1016.3
20260506015531 57 276 10.0 17.0 0.00 0.00 0.00 56 1016.3
20260506015029 58 265 10.0 15.0 0.00 0.00 0.00 56 1016.3
20260506014555 58 269 8.0 15.0 0.00 0.00 0.00 56 1016.2
20260506014030 57 265 10.0 17.0 0.00 0.00 0.00 56 1016.0
20260506013530 57 301 12.0 17.0 0.00 0.00 0.00 56 1016.0
20260506013048 58 300 11.0 17.0 0.00 0.00 0.00 55 1015.9
20260506012529 58 274 12.0 16.0 0.00 0.00 0.00 55 1015.8
20260506012030 58 266 11.0 16.0 0.00 0.00 0.00 55 1015.8
20260506011542 58 273 9.0 17.0 0.00 0.00 0.00 57 1015.8
20260506011033 59 265 10.0 18.0 0.00 0.00 0.00 56 1015.9
20260506010531 59 289 12.0 18.0 0.00 0.00 0.00 55 1016.0
20260506010051 59 271 10.0 16.0 0.00 0.00 0.00 56 1016.0
20260506005531 60 296 10.0 17.0 0.00 0.00 0.00 56 1015.9
20260506005029 60 267 11.0 17.0 0.00 0.00 0.00 58 1015.9
20260506004548 60 281 8.0 15.0 0.00 0.00 0.00 57 1015.9
20260506004029 60 298 10.0 15.0 0.00 0.00 0.00 56 1015.9
20260506003529 60 302 8.0 15.0 0.00 0.00 0.00 56 1015.8
20260506003042 60 286 10.0 16.0 0.00 0.00 0.00 54 1015.9
20260506002530 61 272 12.0 16.0 0.00 0.00 0.00 54 1015.9
20260506002029 61 286 9.0 17.0 0.00 0.00 0.00 56 1015.9
20260506001537 61 273 11.0 17.0 0.00 0.00 0.00 54 1015.9
20260506001031 61 254 11.0 17.0 0.00 0.00 0.00 58 1015.9
20260506000531 61 286 12.0 17.0 0.00 0.00 0.00 57 1015.8
20260506000043 61 285 11.0 18.0 0.00 0.00 0.00 57 1015.8
20260505235529 61 308 12.0 23.0 0.00 0.00 0.00 58 1015.9
20260505235030 61 309 12.0 23.0 0.00 0.00 0.00 56 1015.8
20260505234542 62 279 15.0 23.0 0.00 0.00 0.00 56 1015.7
20260505234030 62 241 12.0 17.0 0.00 0.00 0.00 57 1015.7
20260505233530 61 248 11.0 18.0 0.00 0.00 0.00 59 1015.6
20260505233043 61 283 10.0 18.0 0.00 0.00 0.00 58 1015.7
20260505232530 61 279 12.0 18.0 0.00 0.00 0.00 58 1015.6
20260505232030 62 280 12.0 16.0 0.00 0.00 0.00 57 1015.7
20260505231542 62 285 9.0 14.0 0.00 0.00 0.00 58 1015.6
20260505231029 62 254 9.0 12.0 0.00 0.00 0.00 59 1015.7
20260505230529 62 241 6.0 13.0 0.00 0.00 0.00 59 1015.5
20260505230046 61 279 8.0 14.0 0.00 0.00 0.00 58 1015.5
20260505225530 62 288 11.0 16.0 0.00 0.00 0.00 58 1015.4
20260505225033 62 274 11.0 17.0 0.00 0.00 0.00 57 1015.5
20260505224546 63 273 12.0 17.0 0.00 0.00 0.00 55 1015.5
20260505224030 63 273 9.0 14.0 0.00 0.00 0.00 52 1015.5
20260505223529 63 277 7.0 13.0 0.00 0.00 0.00 53 1015.4
20260505223047 64 302 8.0 13.0 0.00 0.00 0.00 52 1015.6
20260505222529 64 252 8.0 13.0 0.00 0.00 0.00 55 1015.5
20260505222029 63 279 8.0 17.0 0.00 0.00 0.00 55 1015.5
20260505221547 63 277 10.0 17.0 0.00 0.00 0.00 54 1015.5
20260505221029 64 305 9.0 14.0 0.00 0.00 0.00 52 1015.4
20260505220531 64 305 7.0 11.0 0.00 0.00 0.00 52 1015.3
20260505220045 65 261 5.0 11.0 0.00 0.00 0.00 53 1015.2
20260505215530 64 275 8.0 11.0 0.00 0.00 0.00 55 1015.2
20260505215030 63 273 7.0 15.0 0.00 0.00 0.00 57 1015.1
20260505214541 63 249 8.0 17.0 0.00 0.00 0.00 56 1015.2
20260505214028 63 234 10.0 17.0 0.00 0.00 0.00 55 1015.2
20260505213534 63 236 10.0 17.0 0.00 0.00 0.00 54 1015.2
20260505213047 64 251 8.0 14.0 0.00 0.00 0.00 54 1015.2
20260505212533 63 235 7.0 14.0 0.00 0.00 0.00 55 1015.2